Location: Newark
(29.9790°N, 31.1340°E)
Time: 01:47:33
(UTC+00:00)

Transit 2A Rocket - Pass Details

Date: 21 January 2020
Orbit: 591 x 912 km, 66.7° (Epoch: 25 February)

Event Time Altitude Azimuth Distance (km) Brightness Sun altitude
Rises 03:30:31 0° 203° (SSW) 2,905 7.9 -17.4°
Reaches altitude 10° 03:32:49 10° 202° (SSW) 1,969 7.0 -16.9°
Maximum altitude 03:37:13 86° 114° (ESE) 602 4.5 -16.0°
Drops below altitude 10° 03:41:30 10° 26° (NNE) 1,921 7.2 -15.1°
Sets 03:43:43 0° 26° (NNE) 2,828 8.1 -14.6°
